Baltimore, MD

11:40 AM EDT on July 23, 2016 (GMT -0400)
Martin State

Weather History for KMTN - November, 2013

Change the Weather History Date:

Thursday, November 14, 2013

  Actual Average Record
Temperature  
Mean Temperature 42 °F -  
Max Temperature 53 °F 52 °F 68 °F (2011)
Min Temperature 30 °F 36 °F 28 °F (1996)
Degree Days  
Heating Degree Days 24    
Moisture  
Dew Point 26 °F    
Average Humidity 64    
Maximum Humidity 100    
Minimum Humidity 26    
Precipitation  
Precipitation 0.00 in - - ()
Sea Level Pressure  
Sea Level Pressure 30.33 in    
Wind  
Wind Speed 4 mph (SSW)    
Max Wind Speed 10 mph    
Max Gust Speed -    
Visibility 10 miles    
Events      
Averages and records for this station are not official NWS values.
T = Trace of Precipitation, MM = Missing Value Source: NWS Daily Summary

Daily Weather History Graph

Daily Weather History Graph

Search for Another Location

Airport or City:

Trip Planner

Search our weather history database for the weather conditions in past years. The results will help you decide how hot, cold, wet, or windy it might be!

Date:

Astronomy

Nov. 14, 2013 Rise Set
Actual Time 6:48 AM EST 4:51 PM EST
Civil Twilight 6:19 AM EST 5:20 PM EST
Nautical Twilight 5:47 AM EST 5:52 PM EST
Astronomical Twilight 5:15 AM EST 6:24 PM EST
Moon 3:10 PM EST (11/14) 3:42 AM EST (11/14)
Length of Visible Light 11h 00m
Length of Day
10h 03m
Waxing Gibbous, 91% of the Moon is Illuminated
Nov 14
Waxing Gibbous
Nov 17
Full
Nov 25
Last Quarter
Dec 2
New
Dec 9
First Quarter

Hourly Weather History & Observations

Time (EST) Temp. Windchill Dew Point Humidity Pressure Visibility Wind Dir Wind Speed Gust Speed Precip Events Conditions
12:09 AM 35.6 °F 30.7 °F 21.2 °F 56% 30.40 in 10.0 mi SW 5.8 mph - N/A   Clear
12:30 AM 35.6 °F 31.7 °F 21.2 °F 56% 30.39 in 10.0 mi SW 4.6 mph - N/A   Clear
12:51 AM 33.8 °F 29.6 °F 23.0 °F 65% 30.39 in 10.0 mi SSW 4.6 mph - N/A   Clear
1:09 AM 33.8 °F - 23.0 °F 65% 30.38 in 10.0 mi Calm Calm - N/A   Clear
1:30 AM 33.8 °F - 23.0 °F 65% 30.38 in 10.0 mi Calm Calm - N/A   Clear
1:51 AM 33.8 °F 28.6 °F 21.2 °F 60% 30.38 in 10.0 mi WSW 5.8 mph - N/A   Clear
2:09 AM 33.8 °F 30.8 °F 21.2 °F 60% 30.38 in 10.0 mi SW 3.5 mph - N/A   Clear
2:30 AM 33.8 °F 29.6 °F 21.2 °F 60% 30.37 in 10.0 mi WSW 4.6 mph - N/A   Clear
2:51 AM 33.8 °F 30.8 °F 21.2 °F 60% 30.36 in 10.0 mi WSW 3.5 mph - N/A   Clear
3:09 AM 33.8 °F - 21.2 °F 60% 30.36 in 10.0 mi Calm Calm - N/A   Clear
3:30 AM 33.8 °F 30.8 °F 21.2 °F 60% 30.36 in 10.0 mi SW 3.5 mph - N/A   Clear
3:51 AM 33.8 °F 29.6 °F 21.2 °F 60% 30.36 in 10.0 mi SW 4.6 mph - N/A   Clear
4:09 AM 33.8 °F 29.6 °F 21.2 °F 60% 30.36 in 10.0 mi SSW 4.6 mph - N/A   Clear
4:30 AM 33.8 °F 29.6 °F 21.2 °F 60% 30.35 in 10.0 mi SW 4.6 mph - N/A   Clear
4:51 AM 33.8 °F 29.6 °F 21.2 °F 60% 30.35 in 10.0 mi SSW 4.6 mph - N/A   Clear
5:09 AM 33.8 °F 30.8 °F 21.2 °F 60% 30.35 in 10.0 mi SSW 3.5 mph - N/A   Clear
5:30 AM 33.8 °F - 21.2 °F 60% 30.35 in 10.0 mi Calm Calm - N/A   Clear
5:45 AM 33.8 °F - 21.2 °F 60% 30.35 in 10.0 mi Calm Calm - N/A   Clear
6:45 AM 30.2 °F - 21.2 °F 69% 30.36 in 10.0 mi Calm Calm - N/A   Partly Cloudy
7:45 AM 33.8 °F 30.8 °F 24.8 °F 70% 30.38 in 10.0 mi SSW 3.5 mph - N/A   Partly Cloudy
8:55 AM 44.6 °F 42.2 °F 21.2 °F 39% 30.38 in 10.0 mi SSW 4.6 mph - N/A   Partly Cloudy
9:55 AM 44.6 °F 41.4 °F 19.4 °F 37% 30.38 in 10.0 mi SSW 5.8 mph - N/A   Partly Cloudy
10:45 AM 48.2 °F - 17.6 °F 30% 30.35 in 10.0 mi WSW 6.9 mph - N/A   Clear
11:55 AM 51.8 °F - 17.6 °F 26% 30.32 in 10.0 mi SW 6.9 mph - N/A   Clear
1:45 PM 51.8 °F - 30.2 °F 44% 30.28 in 10.0 mi SE 10.4 mph - N/A   Clear
2:51 PM 53.6 °F - 35.6 °F 51% 30.26 in 10.0 mi SE 9.2 mph - N/A   Scattered Clouds
3:45 PM 51.8 °F - 37.4 °F 58% 30.26 in 10.0 mi SE 5.8 mph - N/A   Scattered Clouds
4:56 PM 48.2 °F - 37.4 °F 66% 30.26 in 10.0 mi SSE 6.9 mph - N/A   Scattered Clouds
5:45 PM 48.2 °F - 35.6 °F 62% 30.27 in 10.0 mi South 6.9 mph - N/A   Scattered Clouds
6:50 PM 46.4 °F 44.3 °F 35.6 °F 66% 30.28 in 10.0 mi South 4.6 mph - N/A   Clear
7:45 PM 46.4 °F - 32.0 °F 57% 30.27 in 10.0 mi Calm Calm - N/A   Clear
8:49 PM 39.2 °F - 35.6 °F 87% 30.27 in 10.0 mi Calm Calm - N/A   Clear
10:12 PM 33.8 °F - 33.8 °F 100% 30.27 in 10.0 mi Calm Calm - N/A   Clear
10:33 PM 33.8 °F - 32.0 °F 93% 30.26 in 10.0 mi Calm Calm - N/A   Clear
10:51 PM 33.8 °F - 33.8 °F 100% 30.26 in 10.0 mi Calm Calm - N/A   Clear
11:12 PM 33.8 °F - 32.0 °F 93% 30.25 in 10.0 mi Calm Calm - N/A   Clear
11:33 PM 32.0 °F - 32.0 °F 100% 30.25 in 10.0 mi Calm Calm - N/A   Clear
11:51 PM 32.0 °F - 32.0 °F 100% 30.25 in 10.0 mi Calm Calm - N/A   Clear